Temp
65 63 63 63 62 63 63 62 62 62 62 61 61 61 60 59 59 59 61 61 63 63 63 62 63 62 62 59 55 69 68 67 72 68 64 61 59 58 54 55 55 52 55 57 59 59 58
64 63 63 63 62 63 62 62 61 61 61 61 61 60 60 60 60 60 60 62 64 63 63 63 63 62 63 50 67 71 70 70 68 66 63 63 60 61 57 55 53 56 56 56 59 59 60
64 63 63 63 62 62 62 61 61 61 61 61 61 61 60 60 60 63 63 63 63 63 63 63 63 70 61 54 70 72 70 68 68 67 61 64 64 59 59 54 58 56 50 55 58 58 57
64 63 62 63 62 62 61 61 61 61 61 61 61 60 61 60 61 61 61 62 62 62 63 63 63 70 54 67 73 70 71 68 70 69 66 66 66 60 58 59 55 51 53 43 55 56 57
64 62 62 62 62 62 61 61 61 61 61 60 60 60 60 60 60 61 61 62 62 62 62 63 67 67 54 67 64 69 71 64 66 66 66 66 62 57 57 50 49 49 41 42 47 57 55
63 62 61 61 62 62 61 61 61 61 61 61 60 59 59 60 59 60 60 61 62 65 68 70 70 60 61 57 63 66 69 67 62 61 60 57 56 51 52 46 34 39 40 44 42 51 53
63 62 61 61 61 61 61 61 61 61 61 60 60 60 60 59 59 60 63 65 63 60 63 55 57 56 58 64 66 63 66 63 62 58 50 56 47 44 49 51 50 49 44 43 51 56 50
62 62 61 60 61 61 61 60 60 61 61 60 60 60 60 59 60 60 65 55 51 57 52 61 61 60 62 62 56 60 66 56 55 49 54 47 42 53 53 52 49 47 44 45 51 54 51
62 62 61 60 60 60 60 60 60 60 60 60 60 59 59 59 58 63 59 55 60 60 55 55 59 58 58 61 55 56 61 58 52 49 49 44 50 53 51 49 47 47 44 44 43 50 52
62 61 61 60 60 59 59 60 60 59 59 58 58 59 59 60 60 61 58 62 62 62 45 48 53 57 60 59 52 63 63 56 53 46 48 48 53 49 48 46 48 40 47 45 44 43 40
61 61 60 60 59 59 59 59 59 59 58 58 58 57 57 60 62 60 59 63 63 59 33 51 53 65 61 54 55 56 62 57 48 49 48 45 47 46 44 45 48 42 46 43 44 43 43
61 61 60 59 59 59 59 59 59 58 58 57 57 57 57 62 65 61 62 62 59 40 32 44 53 52 53 55 54 57 56 59 56 48 50 48 54 49 48 50 49 51 45 45 45 43 31
61 60 60 59 59 59 58 58 58 58 58 57 57 57 60 63 61 62 62 61 38 36 47 44 46 51 50 50 50 51 48 47 43 37 39 46 47 51 51 46 49 47 41 32 29 30 33
61 60 60 59 59 58 58 58 58 58 57 56 56 55 59 63 62 61 61 53 34 42 44 51 48 50 46 49 49 49 48 46 48 45 41 36 35 46 50 45 41 43 40 29 26 32 37
60 60 59 59 59 58 58 58 58 57 57 56 55 65 62 63 61 61 57 37 42 45 48 46 49 46 48 49 46 48 47 44 45 46 38 38 39 49 48 49 46 43 36 44 32 37 35
60 60 60 59 59 58 57 58 57 57 57 56 64 62 62 60 61 59 52 42 46 50 49 48 44 47 45 47 45 47 46 46 44 46 48 43 33 47 48 49 48 44 47 34 35 28 30
60 60 60 59 59 57 57 57 57 57 57 55 60 58 58 60 60 58 39 47 48 53 51 47 46 45 48 45 45 46 46 47 47 46 47 44 40 42 45 43 41 43 41 41 37 38 32
60 60 60 59 58 57 57 57 57 57 56 55 58 53 59 59 54 54 48 50 48 51 52 49 49 48 47 47 45 45 44 46 49 47 42 45 41 34 44 46 47 45 42 39 35 33 39
59 60 59 59 58 57 57 56 56 56 55 57 57 58 59 59 48 49 49 49 50 49 50 49 48 49 50 46 41 46 46 49 48 45 43 45 37 32 38 40 43 40 44 42 36 34 34
59 59 59 59 58 57 57 56 56 56 55 55 56 50 57 58 54 53 50 50 48 50 49 49 49 48 47 46 48 44 45 47 46 46 43 44 36 33 37 38 40 37 40 42 39 30 38
59 59 59 58 58 58 57 56 56 56 55 55 55 52 49 50 53 51 50 50 48 46 49 49 47 47 47 43 46 43 46 47 46 43 44 42 30 38 40 43 43 39 39 40 32 36 31
58 58 58 58 58 58 57 56 55 55 54 55 52 51 49 51 49 50 47 50 48 50 49 47 45 50 48 44 47 42 45 45 44 44 43 42 32 30 28 40 40 37 41 42 41 41 39
58 58 58 58 58 57 57 56 55 55 54 54 53 53 51 49 49 49 53 52 49 50 52 51 50 48 46 48 51 51 51 50 45 41 41 38 34 32 34 37 33 29 38 41 44 46 44
58 58 58 58 57 57 56 56 55 55 54 56 56 54 50 48 49 51 49 50 48 48 48 50 49 47 49 51 50 48 47 46 46 44 44 38 33 34 32 34 31 44 47 49 46 49 50
58 58 58 57 57 57 56 56 55 54 53 55 54 52 51 47 53 52 49 48 50 50 45 47 50 53 52 48 44 44 41 38 41 43 42 40 38 34 31 37 46 49 44 43 42 47 54
57 57 57 57 57 56 56 55 55 54 53 49 51 54 51 47 50 53 50 51 48 48 47 46 47 50 48 47 44 37 41 40 38 33 37 40 39 33 34 30 35 49 48 52 50 41 56
57 57 57 57 56 56 56 55 55 54 53 49 47 50 47 46 54 51 49 49 52 51 48 46 43 41 47 45 40 40 42 43 39 38 30 30 33 31 34 34 45 53 49 51 41 48 56
56 56 56 56 56 56 56 56 55 54 53 48 46 47 46 42 47 49 52 49 47 49 48 45 43 42 41 38 40 43 42 45 40 46 40 39 35 35 38 34 32 51 46 46 57 58 58
55 55 55 55 55 55 55 55 55 55 53 51 43 46 46 41 42 47 49 52 54 53 50 46 48 46 49 44 44 43 41 40 42 39 46 39 49 48 46 46 53 53 58 57 58 59 56
MSLP
1021.55 1020.94 1020.47 1020.02 1019.39 1018.37 1017.40 1017.52 1017.00 1016.29 1015.72 1015.32 1015.05 1014.97 1015.07 1015.11 1014.94 1014.65 1014.36 1014.18 1014.13 1014.23 1015.07 1015.12 1015.55 1015.94 1016.10 1015.47 1016.56 1016.65 1016.42 1016.60 1016.16 1016.20 1015.96 1015.64 1015.46 1014.99 1014.60 1014.83 1015.13 1014.90 1014.42 1014.54 1014.36 1014.21 1014.09
1021.95 1021.35 1020.76 1020.31 1019.70 1018.80 1018.02 1017.96 1017.65 1016.85 1016.40 1016.18 1015.84 1015.64 1015.52 1015.37 1014.97 1014.66 1014.39 1014.27 1014.30 1014.89 1015.48 1015.91 1016.13 1016.08 1015.46 1015.84 1016.84 1016.52 1016.39 1016.24 1016.20 1016.33 1016.09 1015.85 1015.66 1015.45 1015.08 1015.11 1015.22 1015.02 1014.89 1014.48 1014.08 1013.61 1013.31
1022.39 1021.84 1021.24 1020.65 1019.98 1019.24 1018.62 1018.35 1018.13 1017.55 1017.02 1017.05 1016.73 1016.29 1015.94 1015.60 1015.38 1014.47 1014.61 1014.91 1015.40 1015.79 1016.11 1016.30 1016.27 1015.49 1015.51 1016.99 1016.72 1016.40 1016.35 1016.60 1016.60 1016.46 1016.10 1016.28 1016.09 1015.70 1015.52 1015.01 1015.33 1015.12 1014.68 1013.90 1013.25 1013.05 1012.91
1022.79 1022.38 1021.80 1021.08 1020.65 1020.04 1019.49 1018.76 1018.43 1018.08 1017.78 1017.43 1017.27 1016.99 1016.61 1016.28 1015.97 1015.77 1015.90 1015.99 1016.10 1016.28 1016.45 1016.52 1016.27 1015.34 1016.40 1017.16 1016.62 1016.58 1016.46 1016.48 1016.63 1016.70 1016.49 1016.41 1016.25 1016.04 1015.59 1015.40 1015.08 1014.72 1014.35 1013.81 1013.08 1013.18 1012.83
1023.08 1022.77 1022.32 1021.62 1021.12 1020.57 1020.00 1019.50 1018.86 1018.69 1018.50 1018.16 1017.91 1017.75 1017.69 1017.45 1017.13 1016.83 1016.84 1016.70 1016.58 1016.50 1016.44 1016.32 1015.76 1015.07 1016.64 1017.30 1016.84 1016.75 1016.61 1016.43 1016.49 1016.52 1016.32 1016.44 1016.43 1015.72 1015.42 1015.15 1014.39 1014.23 1013.93 1013.90 1013.29 1012.89 1012.67
1023.45 1023.11 1022.78 1022.32 1021.55 1021.15 1020.84 1020.24 1019.76 1019.03 1019.07 1018.82 1018.37 1018.14 1017.96 1018.00 1017.83 1017.55 1017.20 1016.93 1016.60 1016.21 1016.04 1015.91 1015.65 1015.79 1016.86 1017.07 1017.09 1017.05 1016.80 1016.69 1016.43 1016.26 1016.01 1016.16 1015.97 1015.49 1015.08 1015.16 1014.79 1014.29 1014.23 1013.77 1013.44 1013.02 1012.57
1023.88 1023.47 1023.18 1022.80 1022.22 1021.63 1021.28 1020.79 1020.26 1019.93 1019.54 1019.52 1019.38 1019.01 1018.55 1018.32 1018.28 1018.12 1017.32 1016.79 1016.62 1016.59 1016.58 1016.58 1016.44 1016.43 1017.00 1017.23 1017.29 1016.91 1016.81 1016.60 1016.44 1016.23 1015.69 1015.49 1015.70 1014.66 1014.44 1014.59 1014.58 1014.28 1014.24 1013.72 1012.75 1012.25 1012.34
1024.24 1023.87 1023.57 1023.23 1022.71 1022.21 1021.62 1021.31 1021.15 1020.83 1020.09 1019.76 1019.72 1019.66 1019.52 1019.30 1018.71 1018.23 1017.70 1018.14 1019.36 1019.58 1018.33 1017.67 1017.31 1017.25 1017.42 1017.48 1016.87 1016.93 1017.03 1016.70 1016.33 1015.88 1015.75 1015.95 1015.16 1014.58 1014.92 1014.92 1014.61 1014.36 1013.87 1013.21 1012.43 1012.24 1012.22
1024.56 1024.20 1023.86 1023.54 1023.13 1022.74 1022.24 1021.74 1021.48 1021.19 1020.94 1020.48 1020.01 1019.83 1019.59 1019.52 1019.28 1018.55 1018.68 1019.50 1019.76 1019.45 1018.19 1018.10 1017.83 1017.53 1017.67 1017.61 1017.06 1016.86 1017.10 1016.74 1016.46 1016.05 1015.70 1015.51 1014.85 1015.11 1014.89 1014.52 1014.19 1013.92 1013.82 1013.49 1013.22 1012.38 1011.84
1024.71 1024.47 1024.21 1023.83 1023.30 1023.02 1022.67 1022.31 1021.88 1021.57 1021.28 1020.83 1020.47 1020.16 1019.75 1019.60 1019.60 1019.70 1019.53 1020.01 1019.85 1019.35 1018.31 1018.23 1017.45 1017.56 1017.41 1017.43 1017.10 1017.16 1017.10 1017.28 1016.40 1016.26 1016.16 1015.48 1015.14 1015.30 1014.93 1014.50 1014.41 1014.17 1014.46 1014.49 1013.61 1012.75 1010.69
1024.90 1024.60 1024.38 1024.18 1023.82 1023.28 1022.90 1022.58 1022.32 1021.87 1021.45 1021.12 1020.89 1020.54 1020.18 1019.52 1019.56 1019.45 1019.96 1019.80 1019.60 1019.48 1018.58 1018.29 1017.48 1017.29 1017.14 1017.10 1017.05 1016.77 1017.24 1016.98 1016.66 1016.24 1016.64 1015.35 1015.38 1015.27 1014.98 1014.85 1014.92 1014.51 1014.86 1014.64 1013.77 1012.71 1011.50
1024.97 1024.77 1024.48 1024.24 1023.94 1023.58 1023.03 1022.65 1022.43 1022.14 1021.74 1021.35 1020.98 1020.73 1020.37 1019.76 1019.58 1020.11 1020.09 1019.82 1019.60 1019.16 1019.02 1018.22 1017.60 1017.13 1016.69 1016.73 1016.63 1016.66 1016.75 1016.90 1016.89 1016.61 1016.22 1015.74 1015.77 1015.64 1015.03 1014.99 1014.98 1014.70 1014.55 1014.15 1013.53 1012.59 1011.59
1025.13 1024.84 1024.66 1024.40 1024.12 1023.80 1023.35 1022.86 1022.44 1022.04 1021.80 1021.41 1021.03 1020.81 1020.26 1020.13 1019.68 1019.95 1019.70 1019.00 1019.04 1018.59 1019.05 1018.08 1017.53 1017.11 1016.80 1016.33 1016.35 1016.51 1016.42 1016.45 1016.61 1016.30 1015.74 1015.43 1015.18 1015.23 1015.36 1014.48 1014.59 1014.40 1014.14 1013.52 1013.18 1012.09 1010.14
1025.16 1024.91 1024.76 1024.58 1024.32 1024.01 1023.69 1023.18 1022.51 1021.99 1021.59 1021.24 1020.93 1020.90 1020.27 1020.04 1020.26 1020.20 1019.50 1018.79 1018.67 1018.72 1018.28 1018.07 1017.76 1017.11 1016.61 1016.44 1016.19 1016.36 1016.14 1016.18 1016.71 1016.68 1016.03 1015.56 1014.96 1014.98 1014.98 1015.03 1014.79 1014.46 1014.52 1014.13 1012.88 1011.24 1009.70
1025.14 1024.89 1024.56 1024.41 1024.27 1024.07 1023.68 1023.29 1022.89 1022.20 1021.58 1020.95 1020.48 1020.02 1020.02 1019.95 1020.18 1019.91 1019.12 1018.58 1018.68 1018.77 1019.11 1018.67 1017.46 1016.51 1015.77 1016.14 1016.67 1016.07 1016.12 1016.51 1017.09 1017.26 1016.82 1015.98 1015.02 1015.06 1015.18 1015.17 1015.39 1014.32 1014.52 1014.61 1013.96 1012.22 1010.63
1024.84 1024.63 1024.61 1024.32 1024.02 1023.93 1023.79 1023.43 1022.93 1022.38 1021.69 1021.09 1020.12 1019.81 1019.69 1020.23 1020.27 1019.75 1018.66 1018.48 1018.48 1018.60 1018.82 1018.68 1017.88 1017.51 1016.24 1015.95 1016.05 1015.81 1016.04 1016.92 1017.26 1017.72 1017.74 1017.04 1016.23 1015.03 1015.01 1015.28 1015.11 1014.99 1014.90 1014.52 1013.96 1012.23 1010.04
1024.64 1024.42 1024.32 1024.17 1023.98 1023.86 1023.61 1023.28 1022.96 1022.46 1021.84 1021.32 1020.44 1019.64 1019.98 1020.03 1020.13 1018.97 1018.58 1018.31 1018.56 1018.66 1018.84 1018.42 1017.76 1017.40 1016.96 1016.72 1016.36 1015.96 1016.22 1017.00 1017.54 1017.83 1017.98 1017.54 1017.18 1015.49 1015.34 1014.70 1014.64 1014.67 1014.45 1014.48 1014.43 1013.19 1011.29
1024.44 1024.20 1024.01 1023.86 1023.77 1023.63 1023.64 1023.44 1022.99 1022.50 1021.76 1021.41 1020.45 1019.56 1019.85 1020.02 1019.26 1018.85 1018.60 1018.52 1018.96 1018.68 1018.92 1018.56 1018.34 1017.69 1017.15 1017.05 1016.65 1016.27 1016.40 1016.92 1017.89 1018.24 1017.89 1018.00 1017.36 1015.95 1014.69 1015.22 1015.26 1015.09 1014.81 1014.87 1014.38 1013.42 1011.91
1023.98 1023.99 1023.75 1023.56 1023.55 1023.43 1023.25 1023.37 1023.08 1022.65 1022.33 1021.53 1020.25 1019.58 1019.67 1019.42 1018.66 1018.32 1018.67 1018.67 1018.86 1018.64 1018.62 1018.73 1018.14 1017.95 1017.79 1017.47 1017.30 1016.78 1016.85 1017.43 1018.00 1018.24 1018.28 1018.25 1017.80 1016.41 1014.92 1015.60 1015.49 1015.06 1014.56 1014.86 1014.97 1014.45 1012.13
1023.68 1023.49 1023.45 1023.35 1023.17 1023.27 1023.10 1023.00 1023.06 1022.78 1022.43 1022.29 1020.52 1019.53 1019.03 1018.81 1018.80 1018.27 1018.20 1018.08 1018.21 1018.64 1018.41 1018.38 1018.26 1018.36 1017.83 1017.27 1017.33 1017.12 1017.21 1017.68 1018.38 1018.64 1019.05 1019.12 1018.28 1017.03 1015.52 1014.69 1014.90 1014.68 1014.57 1014.57 1014.48 1014.13 1011.88
1023.47 1023.23 1023.04 1022.92 1022.91 1022.83 1022.92 1022.82 1022.91 1022.84 1022.61 1022.44 1020.90 1019.89 1020.14 1018.85 1018.40 1018.32 1018.22 1017.88 1017.81 1018.09 1018.64 1018.52 1017.80 1017.68 1017.62 1017.24 1016.79 1016.96 1017.21 1017.62 1018.30 1018.91 1019.19 1019.16 1018.48 1017.23 1015.96 1014.80 1014.43 1014.21 1013.97 1013.97 1013.93 1012.99 1012.07
1023.07 1022.95 1022.77 1022.57 1022.42 1022.41 1022.48 1022.57 1022.79 1022.87 1022.68 1022.22 1021.39 1020.79 1020.57 1019.39 1018.95 1018.42 1018.26 1017.44 1017.32 1017.33 1017.78 1017.69 1017.80 1017.33 1017.55 1017.37 1017.12 1017.29 1017.43 1017.63 1017.84 1018.64 1018.75 1019.09 1018.56 1017.91 1015.89 1014.72 1013.99 1013.32 1012.84 1012.67 1012.58 1012.02 1011.20
1022.53 1022.49 1022.37 1022.26 1021.98 1022.02 1022.04 1022.15 1022.40 1022.62 1022.68 1021.92 1021.80 1021.70 1021.15 1019.48 1018.86 1018.24 1017.10 1016.88 1017.22 1017.63 1017.38 1017.48 1017.60 1017.77 1017.52 1017.26 1017.37 1017.37 1017.65 1017.83 1018.29 1018.57 1018.64 1018.90 1018.58 1017.80 1015.54 1014.30 1013.68 1012.48 1010.15 1010.48 1010.38 1010.05 1009.74
1021.97 1021.99 1021.86 1021.83 1021.62 1021.50 1021.62 1021.64 1021.95 1022.25 1022.64 1022.38 1021.84 1021.56 1020.77 1018.92 1018.51 1017.59 1017.28 1017.38 1017.36 1017.66 1017.75 1017.85 1018.32 1018.40 1018.26 1018.17 1017.97 1017.68 1017.51 1017.73 1017.97 1018.17 1018.56 1018.53 1018.54 1017.69 1015.47 1013.92 1011.94 1009.53 1009.32 1009.14 1009.22 1008.56 1008.08
1021.64 1021.50 1021.49 1021.23 1021.15 1020.83 1021.13 1021.25 1021.31 1021.76 1022.13 1022.16 1022.27 1021.87 1020.83 1019.14 1017.99 1017.40 1017.46 1017.54 1017.51 1017.81 1018.22 1018.08 1018.11 1018.24 1018.65 1018.43 1017.56 1016.49 1016.27 1016.67 1016.83 1017.71 1018.12 1018.58 1018.06 1016.96 1015.45 1012.95 1009.56 1007.95 1008.52 1008.52 1008.30 1006.87 1006.18
1021.28 1021.24 1020.99 1020.74 1020.65 1020.70 1020.46 1020.63 1020.88 1021.09 1021.59 1022.11 1021.83 1021.92 1021.49 1020.32 1017.72 1017.64 1017.30 1017.20 1017.12 1017.28 1017.73 1018.12 1018.93 1019.23 1019.03 1018.18 1017.29 1016.21 1015.07 1014.90 1015.78 1017.29 1018.48 1018.09 1017.82 1016.91 1014.84 1012.80 1009.28 1006.96 1007.53 1007.89 1007.96 1006.37 1005.07
1020.36 1020.74 1020.65 1020.42 1020.20 1020.08 1020.04 1019.96 1020.14 1020.55 1021.05 1021.68 1021.60 1021.41 1021.57 1020.50 1018.44 1018.61 1017.89 1017.30 1017.32 1017.09 1017.30 1017.85 1018.82 1019.34 1019.19 1017.72 1016.82 1015.47 1014.22 1014.64 1014.29 1014.79 1016.48 1016.98 1016.22 1014.86 1013.32 1011.50 1008.14 1006.67 1007.50 1007.69 1007.00 1005.60 1005.06
1020.03 1019.83 1019.96 1019.87 1019.67 1019.57 1019.32 1019.16 1019.36 1019.53 1020.17 1021.12 1021.17 1021.27 1021.23 1020.55 1018.89 1018.57 1018.31 1018.06 1017.72 1017.44 1016.85 1017.99 1018.52 1018.55 1018.57 1017.60 1016.37 1014.83 1013.98 1013.66 1013.77 1012.67 1013.06 1013.41 1013.17 1012.19 1011.17 1009.99 1007.57 1006.80 1007.62 1006.64 1004.56 1004.48 1004.72
1019.64 1019.57 1019.16 1019.24 1019.18 1018.80 1018.69 1018.58 1018.32 1018.68 1019.07 1019.91 1020.69 1020.88 1021.44 1021.30 1019.39 1018.61 1018.35 1017.59 1017.36 1017.19 1016.97 1017.17 1016.70 1016.80 1016.84 1016.66 1015.93 1015.19 1014.08 1013.47 1012.78 1011.82 1011.93 1011.18 1009.84 1009.41 1008.75 1006.65 1005.76 1005.78 1004.59 1004.78 1004.69 1004.41 1004.80
Wind_Speed
24 24 25 26 26 25 24 25 27 28 26 23 20 17 13 13 11 9 9 8 4 16 12 14 12 8 4 9 8 5 4 10 6 1 1 2 2 1 1 0 2 5 3 4 9 10 12
24 24 24 25 25 24 23 25 24 24 26 23 22 19 16 14 13 10 6 6 16 19 13 12 8 4 5 16 3 3 5 4 4 2 2 1 2 4 3 3 5 4 9 12 14 15 12
23 23 23 24 24 24 22 22 23 24 25 24 23 18 14 14 15 20 16 22 18 16 14 9 2 4 18 8 2 5 2 3 2 2 1 2 4 6 5 4 5 7 13 13 13 1 6
22 23 23 24 24 23 22 20 22 23 23 25 26 23 17 14 15 22 18 19 15 13 10 5 3 4 7 2 2 3 3 4 3 1 3 3 4 7 5 4 5 8 9 8 5 3 4
21 22 22 23 23 22 21 20 20 21 21 23 24 25 24 18 16 15 12 13 12 10 4 3 1 4 8 3 2 3 4 3 1 1 2 2 5 6 3 8 9 4 5 7 9 6 3
21 21 21 21 21 22 21 19 17 19 19 19 20 22 23 20 19 16 11 6 3 5 2 2 3 6 3 3 2 3 2 3 3 4 5 5 4 7 7 5 5 7 6 6 10 2 11
20 21 20 21 20 20 20 19 18 17 18 18 16 16 15 15 10 10 7 4 5 7 14 9 7 12 5 2 3 1 1 3 3 5 7 1 7 9 7 8 12 13 11 14 14 8 8
18 19 20 19 20 19 19 18 18 17 14 14 13 11 10 11 11 4 6 5 5 7 11 10 8 8 4 2 1 2 2 4 4 8 5 6 11 6 8 11 12 13 14 14 13 5 9
16 18 19 18 18 18 18 17 17 17 16 14 10 10 7 5 2 8 14 6 1 1 1 6 6 6 4 6 3 3 3 5 8 9 6 8 9 7 9 10 12 12 10 8 13 14 16
14 16 17 17 16 16 17 17 16 16 16 14 13 12 6 2 2 5 6 6 3 2 2 7 4 4 1 3 2 2 2 4 4 6 7 8 2 7 9 10 8 12 1 11 10 9 6
12 12 16 16 16 16 16 17 17 16 16 14 12 10 12 3 3 1 3 5 4 5 2 5 2 2 2 4 5 5 0 5 8 7 5 1 6 6 9 7 8 7 4 8 9 9 9
11 10 12 14 15 15 15 15 16 17 17 16 13 11 7 3 1 4 5 6 4 2 2 2 3 3 5 3 1 4 3 4 3 6 6 11 4 5 6 8 5 9 6 9 10 6 5
9 10 9 12 14 15 15 15 15 14 15 16 12 10 6 3 3 4 5 4 3 2 1 3 3 5 6 5 2 3 2 4 4 4 2 5 4 2 5 8 6 4 5 4 5 5 0
10 9 10 8 12 14 15 16 15 16 17 15 8 8 1 2 5 5 3 2 3 1 1 2 4 8 4 6 2 5 4 4 4 6 5 4 3 2 3 3 5 5 4 3 4 2 3
11 9 8 8 8 12 14 15 17 16 16 12 5 2 3 4 2 3 5 4 3 1 5 7 7 6 2 1 4 5 2 4 3 6 5 4 2 1 2 3 4 2 3 3 3 5 5
10 9 8 9 7 9 12 15 16 18 17 10 2 2 0 5 3 4 1 2 2 3 1 2 6 3 5 6 5 3 2 3 2 2 4 2 6 3 1 3 6 5 3 3 3 4 5
9 10 10 8 8 6 9 12 16 18 19 7 4 3 3 2 2 5 2 1 2 4 2 3 3 5 5 6 4 4 3 4 1 3 3 3 2 2 3 4 3 2 2 3 2 5 4
9 10 10 9 7 7 7 11 13 17 20 7 2 3 2 3 2 1 1 1 1 4 4 4 4 5 5 5 7 4 3 2 2 3 3 3 5 5 2 3 2 3 3 4 4 4 2
10 10 11 10 8 8 7 8 11 13 13 5 4 3 2 3 2 1 3 2 3 4 4 2 4 4 2 4 5 5 3 2 2 1 4 3 3 5 5 3 3 6 6 3 1 4 6
14 10 10 11 9 8 7 6 9 11 12 5 3 3 2 1 1 3 2 4 3 3 4 4 3 3 3 5 5 6 5 1 2 2 2 2 3 7 4 3 2 5 8 9 5 3 4
15 12 11 11 11 9 7 5 6 9 10 3 2 1 2 2 2 3 2 1 5 4 5 5 4 8 3 5 5 5 3 5 4 2 3 4 5 7 13 15 13 11 11 10 11 11 6
14 14 12 11 11 10 8 6 4 7 9 3 4 3 3 2 2 4 4 5 7 4 5 5 7 2 6 6 3 8 4 3 4 4 3 2 4 4 6 3 7 15 16 16 17 18 19
12 13 12 12 11 11 9 7 5 3 4 3 1 1 5 3 3 4 4 4 4 3 6 4 5 5 9 10 6 8 7 6 4 3 4 3 3 3 5 3 6 9 14 20 11 10 14
12 12 12 12 11 11 11 8 8 5 3 3 1 2 3 5 6 6 4 5 8 10 6 2 6 5 3 1 4 6 7 9 10 10 6 4 2 2 6 5 4 2 1 1 14 13 15
13 13 13 11 11 9 12 11 11 11 8 3 1 3 3 7 6 11 12 9 6 5 6 9 8 2 1 2 5 6 4 3 7 9 10 7 3 4 4 5 13 7 7 7 7 6 12
13 14 13 12 11 11 11 13 13 15 13 3 3 3 3 5 5 12 4 8 7 7 4 5 2 1 2 3 3 4 4 3 3 4 3 5 7 4 1 4 6 3 8 5 3 6 9
12 15 16 14 13 12 11 12 15 16 17 4 3 4 2 5 8 5 5 4 4 4 4 2 4 4 3 4 4 5 5 1 4 5 6 4 6 10 9 6 11 6 11 7 3 2 7
14 16 18 16 15 15 14 12 15 18 20 8 2 6 4 4 6 6 5 7 2 4 6 5 3 4 4 5 4 5 4 2 5 5 6 10 8 6 5 6 10 14 9 7 3 3 7
14 15 15 17 18 18 17 17 14 18 22 17 3 3 2 2 5 1 5 10 11 5 3 7 2 4 5 5 3 4 5 3 5 6 6 7 11 4 9 7 2 19 8 14 3 4 4
Wind_Direction
18 19 16 18 18 24 29 29 34 37 39 45 46 55 59 53 41 18 15 40 130 140 113 91 101 129 209 96 71 6 336 154 146 141 46 78 248 311 283 24 269 259 289 288 273 272 266
20 18 19 21 23 23 28 42 41 40 39 40 49 54 56 47 27 22 25 84 130 109 109 114 126 191 246 81 325 131 141 142 99 249 67 343 31 360 299 272 270 340 294 287 279 274 271
19 18 18 22 24 26 28 41 49 43 49 41 33 34 39 44 43 58 95 99 101 106 115 120 184 147 70 77 20 99 68 52 42 344 91 9 352 306 317 300 338 285 288 287 265 297 271
18 19 18 20 26 31 30 39 51 55 48 45 33 31 50 58 65 65 81 90 90 90 91 92 279 126 77 38 32 150 138 99 90 94 7 342 302 292 276 313 263 258 268 281 129 211 164
17 21 20 19 24 31 33 36 50 54 57 52 44 39 41 48 47 55 66 86 87 84 66 262 264 94 94 169 155 55 0 18 16 260 279 293 292 285 260 269 278 221 272 251 284 220 269
16 19 18 21 25 27 33 35 42 58 47 49 61 56 44 36 28 18 17 5 150 140 192 154 52 114 139 84 23 327 318 319 319 302 255 245 244 273 235 243 276 283 264 289 273 251 245
18 16 18 21 21 27 31 31 33 46 51 41 45 55 56 54 53 11 314 232 166 74 48 67 65 87 98 63 227 89 304 273 275 263 280 239 287 264 300 286 292 293 279 270 264 269 310
17 14 18 19 20 24 29 28 29 27 45 54 47 31 44 57 50 30 51 52 5 358 78 62 82 87 60 341 241 94 271 295 303 293 301 265 257 348 325 288 282 284 276 271 272 286 262
15 13 13 17 19 18 19 26 26 29 27 23 40 32 32 38 304 53 73 71 281 288 69 59 30 23 5 322 13 29 304 326 288 289 272 288 298 322 282 293 283 263 284 307 304 308 277
14 12 7 10 14 17 14 14 21 20 17 17 17 14 20 238 295 339 40 19 317 277 91 19 21 76 335 312 233 337 294 299 257 299 316 274 42 296 293 303 320 289 247 300 273 274 265
13 13 5 6 4 10 12 11 10 11 6 2 2 3 4 325 111 51 357 321 307 247 90 345 360 25 289 286 330 147 122 246 281 303 268 20 281 298 293 322 311 291 320 266 262 260 292
0 11 5 0 2 0 4 8 9 4 360 354 341 348 322 231 171 46 319 297 241 308 51 352 303 318 325 186 175 301 251 208 279 283 237 275 304 264 314 309 280 309 262 219 227 228 246
348 357 6 356 355 356 356 359 359 359 353 347 336 330 339 297 342 320 295 249 349 20 169 300 316 322 322 326 248 333 321 39 24 314 311 288 200 251 283 304 204 288 285 189 181 206 149
339 343 351 358 351 352 350 348 352 348 344 336 331 316 100 346 326 298 261 252 35 355 262 310 291 298 274 346 167 327 300 18 89 330 287 325 188 331 16 336 307 321 333 332 339 357 26
325 326 340 348 351 346 346 345 341 343 339 332 306 198 265 8 319 250 249 61 35 26 348 313 289 266 180 174 286 316 32 8 360 352 325 322 199 151 252 291 301 89 245 52 297 204 257
308 315 320 329 341 343 343 341 341 339 342 325 275 248 199 344 285 256 36 164 154 163 277 263 311 329 321 360 309 322 337 93 7 328 313 39 290 174 147 254 216 281 2 234 211 287 283
311 304 306 315 320 330 331 341 339 340 341 316 267 254 82 146 241 238 121 101 174 182 211 221 301 290 292 315 308 306 339 137 39 342 279 317 250 141 227 213 330 213 225 216 269 290 305
311 296 301 297 299 305 326 334 344 342 341 282 287 263 97 207 247 299 292 175 46 209 200 252 273 273 275 315 288 279 279 259 95 336 292 34 302 267 320 111 283 261 300 304 281 150 232
308 301 293 291 290 297 302 327 339 347 358 314 301 298 162 250 279 193 155 215 272 215 231 242 263 238 320 288 291 265 278 116 176 253 344 56 223 289 174 181 201 250 198 245 206 293 246
300 300 289 286 283 287 285 309 329 339 349 296 278 294 152 136 359 293 240 226 231 209 242 220 282 257 274 265 214 303 284 233 214 251 76 274 263 242 287 346 334 233 225 216 210 243 299
293 297 290 280 274 276 274 272 314 332 347 294 295 86 36 296 149 282 243 300 232 237 233 231 221 232 262 284 269 233 274 274 204 156 210 256 265 291 270 276 270 252 256 225 213 238 245
289 294 295 282 268 262 265 255 275 324 335 271 305 278 185 273 241 243 181 212 229 197 217 214 240 244 213 243 281 301 322 250 311 172 251 180 276 334 275 296 269 257 257 243 245 244 255
283 288 292 291 275 259 253 251 234 294 319 287 92 282 296 119 217 234 227 238 234 220 205 253 247 261 236 252 280 284 274 274 269 270 263 237 292 313 276 331 311 264 237 223 219 221 217
272 279 284 286 280 265 245 228 213 208 250 303 343 289 266 267 230 229 246 235 234 222 279 221 222 253 45 32 271 248 246 251 242 224 230 249 215 272 285 298 263 89 102 212 225 251 231
273 274 277 282 285 270 251 225 205 195 202 242 191 255 260 273 261 264 247 246 259 239 245 252 225 330 123 276 282 283 190 223 221 227 210 215 268 266 278 280 286 225 200 185 191 278 227
268 275 276 279 282 281 261 233 212 197 190 192 201 215 271 304 248 269 259 229 237 231 224 221 85 171 211 266 251 267 276 47 189 187 294 202 242 253 283 271 271 78 143 132 141 266 186
258 271 274 280 281 277 270 247 221 199 190 172 221 180 250 254 274 229 235 234 196 230 279 121 162 180 245 224 243 239 248 350 240 217 175 194 215 222 221 254 277 113 147 150 216 64 171
273 269 267 266 272 274 271 256 235 205 190 165 229 185 182 221 267 212 232 236 197 232 241 123 158 202 180 227 237 244 246 175 271 231 184 195 193 208 201 215 262 140 137 214 77 146 179
292 291 281 272 270 267 263 260 247 222 194 179 204 165 136 238 263 235 256 256 257 287 260 183 300 159 218 226 232 294 237 208 254 264 197 234 220 284 221 228 75 187 224 219 324 284 203